Helicity
-17 18 35 35 45 106 116 163 104 131 106 148 123 102 123 79 83 56 48 34 24 37 69 34 43 49 -21 -16 10 -12 10 38 86 89 26 -12 -30 6 -10 -49 -14 -44 -53 -52
42 44 59 54 91 67 125 184 162 156 113 100 109 121 100 80 88 67 51 30 28 75 46 30 61 56 26 26 -3 -59 -50 -41 70 4 -8 -8 -3 30 15 -20 -47 -72 -60 26
64 46 51 89 75 98 146 178 137 156 122 103 86 104 114 88 69 47 36 33 42 54 53 55 40 83 20 58 11 7 -8 -53 44 18 -4 32 22 25 24 21 -1 26 107 62
61 44 98 88 83 101 158 170 109 100 95 105 77 72 76 68 74 52 30 39 33 49 24 57 61 29 70 6 22 16 -15 30 88 133 206 187 156 29 167 180 92 171 16 45
71 87 57 63 100 124 122 108 104 121 91 84 70 70 45 51 52 54 42 57 35 48 32 79 89 78 51 25 100 50 -4 36 74 2 169 388 613 696 490 364 49 6 1 52
65 53 59 98 111 107 129 140 131 111 130 85 70 43 41 29 39 49 30 13 14 38 60 50 137 94 124 119 133 91 52 17 1 25 63 295 348 156 128 153 113 -14 19 -34
35 62 81 99 115 91 125 134 115 108 111 69 35 28 31 31 21 31 3 -19 -11 8 80 71 10 -29 -23 -40 18 57 84 70 -13 0 37 135 1 24 68 96 100 31 7 -29
49 55 81 98 100 127 151 129 109 112 129 108 109 75 52 28 30 24 2 -10 -1 40 31 24 41 16 18 2 -3 38 40 34 44 37 96 7 2 11 32 66 80 59 21 8
58 52 76 92 86 120 148 151 106 105 114 106 82 63 44 28 13 13 11 -1 9 22 24 14 38 45 33 20 47 26 31 113 46 65 75 58 26 41 -16 -31 48 31 16 13
59 70 86 99 114 136 129 134 120 93 79 77 65 28 19 13 14 14 -4 24 22 22 18 12 39 33 35 53 48 98 68 79 117 143 91 42 60 65 13 4 -9 -1 -6 2
76 67 88 116 126 124 130 120 131 71 56 74 52 26 17 17 24 28 12 32 27 44 37 13 26 35 32 40 18 48 61 78 85 86 101 98 68 14 9 4 1 6 3 3
61 79 115 133 108 121 121 105 111 91 73 41 38 35 15 5 0 18 12 32 44 44 50 45 57 58 46 38 44 38 33 29 33 43 22 21 45 58 29 -4 -3 -9 4 28
58 103 116 116 118 121 84 101 97 100 90 86 71 54 54 0 -22 -13 15 4 27 48 29 41 55 76 55 43 29 24 14 13 25 13 12 11 9 18 21 26 22 37 62 72
68 78 115 126 133 116 103 96 93 91 101 63 46 58 28 3 4 -15 -15 -5 15 27 33 55 66 69 39 45 23 19 15 22 9 22 17 14 13 13 29 39 41 57 56 56
83 110 108 117 120 119 121 111 101 94 72 47 45 61 31 8 -11 -16 -10 -2 3 14 30 50 68 70 63 49 37 23 7 10 6 3 5 18 9 7 27 53 39 26 47 53
66 76 91 106 98 118 146 126 104 98 76 93 50 48 22 6 -3 -2 1 7 4 -2 10 20 27 29 60 66 50 30 24 18 3 1 18 22 19 20 24 41 39 44 55 47
59 77 90 94 109 133 126 83 91 77 71 82 53 53 37 22 22 27 30 28 24 20 11 8 22 34 49 59 47 37 28 36 61 63 78 50 18 10 57 79 72 71 80 66
53 74 84 84 101 124 104 105 103 84 88 76 63 44 46 20 22 17 12 18 28 29 23 14 16 15 32 44 43 53 47 42 49 31 26 48 97 135 112 95 72 70 64 57
59 63 104 151 135 122 133 101 97 108 96 79 61 46 34 28 24 17 12 12 21 13 16 14 28 24 25 30 40 61 54 32 36 60 74 82 102 106 91 89 67 71 58 56
67 145 185 166 122 111 80 119 109 99 80 71 53 63 40 35 40 35 31 17 23 31 11 31 46 43 50 42 48 47 32 51 95 90 57 71 63 68 72 60 54 54 54 63
154 183 159 141 98 144 126 101 88 73 45 51 55 24 44 26 38 24 21 27 25 34 16 31 26 22 48 74 105 66 55 50 27 55 50 37 72 88 89 59 57 69 81 82
137 136 139 171 148 125 94 77 60 42 56 58 52 25 35 31 34 39 29 37 40 20 30 35 17 17 59 95 105 115 137 118 96 97 128 113 85 76 71 68 81 91 102 98
149 197 194 162 116 109 78 36 17 55 75 23 36 62 52 41 48 52 37 43 16 33 41 7 14 61 82 114 130 126 125 129 139 141 137 126 97 65 69 85 88 110 115 92
207 203 166 145 112 84 32 27 45 30 43 25 33 85 49 41 69 48 51 22 35 21 17 -13 28 113 144 122 110 131 86 81 87 102 98 85 79 79 73 84 88 104 102 92
202 188 149 126 109 70 48 36 69 74 17 86 88 72 47 68 63 44 48 36 10 7 -2 -6 30 132 164 136 103 90 63 52 56 49 57 68 80 91 91 66 84 103 115 107
184 138 143 158 134 69 55 51 71 64 58 98 76 57 50 45 43 39 24 24 9 19 24 6 75 128 128 122 85 60 46 40 41 46 66 80 92 97 91 83 74 81 93 86
162 170 114 133 128 120 76 82 71 83 83 93 55 59 38 50 46 36 39 49 36 25 25 4 -5 101 132 121 95 67 55 55 69 77 86 92 110 123 122 93 50 64 70 79
Wind_Speed
24 23 22 17 15 10 19 22 24 25 31 19 25 17 18 21 23 29 30 34 36 38 39 38 35 29 45 49 43 31 50 18 19 9 29 32 36 48 59 54 47 40 40 37
20 20 17 16 13 17 19 22 23 31 30 22 20 25 22 19 24 26 29 32 33 38 38 38 30 29 49 49 50 39 47 32 35 19 17 5 42 38 43 47 44 40 45 38
19 17 17 14 16 22 23 20 25 28 31 29 23 17 18 19 25 25 28 28 34 43 37 26 29 37 47 53 43 34 31 34 32 35 35 37 43 55 35 42 40 36 24 10
18 18 15 21 23 27 28 27 28 31 31 31 24 23 20 19 23 25 28 28 33 40 37 31 26 47 53 47 44 43 44 32 41 47 33 26 13 44 17 15 7 21 11 7
20 18 22 22 28 28 29 29 30 29 25 24 19 23 18 18 25 21 25 29 33 34 29 23 22 49 48 45 46 40 36 25 24 36 29 39 28 20 16 23 27 24 23 20
25 24 24 27 30 35 34 33 32 30 33 26 21 23 17 18 24 26 28 28 34 30 23 36 54 50 5 43 44 39 34 34 27 21 20 14 17 19 16 20 18 12 20 24
24 23 29 27 28 36 31 34 33 29 23 26 23 21 19 21 23 22 29 32 33 27 46 52 42 40 35 35 39 42 41 37 31 27 23 16 16 23 15 27 25 25 26 24
22 26 25 25 32 28 25 32 36 33 24 25 18 16 21 27 27 25 23 30 33 50 39 35 30 37 32 32 35 37 37 35 29 27 15 14 22 27 24 21 26 34 30 26
24 24 27 29 31 26 27 27 29 31 24 27 26 21 27 25 27 29 23 34 41 44 32 29 27 28 38 39 39 40 36 31 25 27 26 27 29 36 31 27 28 36 36 36
26 26 29 34 29 26 31 29 29 31 28 30 26 26 25 26 27 29 30 37 37 40 29 24 25 29 37 36 36 39 35 30 24 25 24 24 39 36 21 30 28 33 37 39
30 31 32 31 27 26 31 28 28 34 31 29 28 29 24 25 28 30 31 28 33 34 27 23 25 29 33 33 32 35 32 33 31 30 27 32 42 26 27 23 28 32 35 38
30 35 31 26 22 24 29 32 30 29 29 27 31 35 34 26 26 28 32 28 29 31 28 26 27 28 32 33 32 35 31 28 27 28 21 22 27 26 25 26 27 30 31 34
33 33 25 20 16 27 28 27 30 27 27 26 24 25 28 23 21 26 29 31 30 29 29 28 28 28 32 34 33 30 29 28 23 25 21 21 23 26 25 26 29 30 32 33
30 27 23 18 16 22 24 30 28 24 22 19 20 27 24 27 23 25 30 29 30 30 30 28 29 29 31 34 32 31 31 31 23 21 20 20 23 23 23 26 31 34 35 37
26 24 23 19 17 16 16 20 24 23 26 18 16 26 25 24 24 27 30 33 33 31 28 28 27 30 31 34 34 32 32 29 30 28 20 23 21 22 23 27 31 34 35 38
23 22 23 23 22 23 27 31 31 27 24 20 13 27 23 23 24 27 30 32 33 32 30 28 28 28 31 33 36 34 31 32 28 26 23 21 18 21 24 27 31 35 37 37
23 21 22 24 25 26 30 31 29 26 24 22 18 20 22 22 26 28 29 31 31 31 31 28 25 26 29 30 35 28 29 25 19 15 16 22 21 23 23 28 32 35 38 39
17 14 17 22 23 24 27 30 27 22 23 23 20 21 20 25 24 26 31 30 31 30 30 30 26 25 24 27 21 16 19 18 17 20 25 19 21 22 24 26 29 34 37 37
18 12 13 22 31 30 28 24 17 22 25 26 24 15 17 21 23 25 28 30 30 32 31 31 30 27 19 21 21 16 11 12 14 15 15 17 20 21 23 26 30 34 35 36
18 28 32 34 34 25 14 24 27 29 30 31 27 23 17 19 21 23 26 30 31 31 32 33 33 32 25 29 13 14 10 10 8 11 17 16 19 21 24 28 31 32 32 34
32 34 33 25 23 24 27 27 26 27 30 32 25 15 16 19 20 20 25 29 32 34 33 34 36 36 24 21 15 8 6 7 9 16 15 14 18 20 23 25 29 31 33 34
27 23 19 23 28 28 28 27 27 30 29 22 15 11 15 18 21 23 27 31 31 33 35 37 37 32 21 22 21 12 10 6 11 14 10 14 18 20 24 28 30 32 34 35
24 26 29 29 31 30 29 25 28 31 27 16 9 7 13 19 24 27 28 31 34 36 35 39 31 20 22 25 25 17 13 13 11 10 12 13 17 22 26 28 30 32 34 35
31 32 33 35 35 40 34 32 27 28 20 1 9 11 18 21 23 28 30 31 33 36 34 39 21 21 26 29 31 34 33 8 10 10 13 18 21 23 25 27 29 30 32 34
30 32 38 39 37 36 31 29 31 27 10 4 6 17 21 22 26 27 30 32 35 32 31 30 25 25 28 29 30 37 44 40 26 23 23 21 22 24 25 26 27 30 31 33
30 32 34 34 32 28 28 26 24 22 7 9 18 19 22 26 24 26 27 32 36 34 25 33 20 20 25 26 34 35 32 31 29 25 23 22 23 22 23 24 25 27 30 33
36 35 33 33 33 31 29 26 24 22 14 16 18 19 21 24 30 32 29 34 36 37 31 39 36 16 22 19 21 22 24 24 23 22 21 20 20 21 22 22 23 24 27 32
Wind_Direction
167 157 153 171 181 191 230 238 255 255 250 273 278 286 295 319 344 1 20 26 27 22 18 18 25 29 324 294 284 266 335 229 249 228 181 177 178 214 207 204 203 209 237 259
154 150 173 177 192 210 232 241 251 250 253 265 270 275 298 322 344 12 24 28 34 27 25 23 32 27 298 282 296 286 309 266 266 236 156 173 227 235 230 219 212 221 222 250
180 175 170 198 207 223 240 243 252 256 255 261 262 280 306 330 350 18 25 35 31 24 27 48 32 7 301 295 289 283 338 287 264 245 267 220 216 205 231 220 241 231 227 351
180 178 198 212 225 229 236 256 253 248 247 250 263 277 304 333 346 10 21 31 27 21 22 30 37 334 299 304 321 319 1 327 7 7 337 353 300 218 255 40 322 201 50 342
193 203 213 223 228 229 245 245 245 251 247 249 266 279 310 340 349 21 20 17 14 20 31 37 23 331 327 311 306 310 326 277 257 345 9 32 36 36 67 71 55 48 32 6
202 212 224 227 231 235 239 242 241 243 241 248 270 283 316 344 357 4 11 17 10 21 28 339 263 258 351 266 286 295 279 289 274 304 332 229 35 20 34 38 14 314 354 0
206 218 224 230 232 233 236 237 237 244 247 253 272 289 321 344 352 7 11 14 10 20 309 282 288 303 322 293 311 271 274 277 291 267 289 276 332 343 358 27 7 6 16 5
214 218 226 230 227 234 237 235 236 243 249 259 285 311 326 325 338 1 17 13 4 337 359 7 339 314 317 313 315 321 313 278 291 279 304 334 336 320 306 318 344 354 357 11
217 221 226 228 226 237 237 246 247 245 246 263 276 312 316 340 340 349 10 353 344 346 6 20 23 333 306 296 297 316 322 319 289 277 275 277 315 297 292 317 334 348 358 357
218 226 226 224 231 239 238 245 254 249 255 264 281 303 326 343 355 356 7 354 354 354 16 36 16 341 297 303 301 300 301 304 298 293 286 305 307 292 314 311 323 0 6 7
222 224 222 227 231 239 243 248 261 249 257 267 279 295 328 350 359 2 6 16 6 2 21 27 360 331 298 301 319 300 308 292 287 294 288 286 316 335 334 12 8 11 17 20
220 220 223 231 233 243 247 248 258 263 261 271 277 278 293 329 351 13 12 20 13 3 4 357 339 327 300 299 299 319 301 317 299 304 317 326 333 1 1 9 7 1 16 31
220 221 223 232 242 242 250 248 253 257 261 275 283 301 313 352 2 4 17 9 6 3 357 345 333 320 305 290 297 312 322 321 316 301 323 346 350 351 350 4 5 3 18 26
217 216 218 228 240 242 249 247 254 261 264 286 294 299 320 347 25 17 11 11 4 356 348 345 332 320 309 295 303 307 303 304 325 332 323 330 333 336 350 2 9 12 14 16
215 215 218 227 234 241 247 254 260 267 266 292 293 289 313 352 13 22 19 15 8 358 350 344 335 324 315 302 292 297 300 298 288 295 304 312 322 339 3 1 0 10 17 12
210 213 217 223 230 236 243 249 257 261 275 282 314 287 308 345 2 10 7 7 9 1 355 351 344 334 322 306 290 287 299 303 304 303 300 329 351 354 359 3 10 15 18 21
203 210 218 225 231 242 245 252 257 254 273 281 308 308 318 337 353 358 355 351 354 353 1 14 12 349 332 317 297 292 300 306 316 340 345 324 340 341 10 20 23 22 20 18
194 209 224 226 231 243 253 260 254 252 269 283 307 318 325 332 360 4 348 352 343 336 341 354 33 25 11 341 343 342 313 308 314 317 327 347 18 33 23 19 18 10 7 10
193 195 210 229 235 238 247 254 262 268 275 276 293 331 347 345 2 3 359 350 343 327 334 332 342 2 55 48 104 86 36 328 303 334 358 10 12 16 12 11 5 5 6 6
188 217 230 230 230 229 244 258 259 262 271 277 289 305 348 359 5 5 357 339 339 340 330 332 332 337 351 341 91 85 74 5 37 332 316 342 355 6 6 359 1 6 14 23
219 227 233 226 209 239 257 258 261 265 273 272 288 310 357 351 17 12 347 339 335 330 333 333 330 331 356 10 20 36 47 33 70 316 332 5 14 13 16 11 24 32 31 30
227 228 218 218 235 253 259 257 266 268 274 287 299 313 351 355 350 351 337 331 336 328 329 324 328 345 45 66 63 356 310 356 320 313 19 25 22 21 37 53 47 39 36 33
221 222 226 234 246 251 253 253 261 268 269 286 304 22 355 347 331 328 328 322 321 326 329 314 342 45 74 78 69 39 307 301 328 13 48 31 29 45 57 54 47 47 43 37
229 230 229 240 246 247 256 251 260 270 279 327 77 8 347 333 322 317 317 319 324 318 327 310 53 98 110 109 105 105 107 16 42 51 60 69 69 59 53 59 59 48 36 29
236 242 238 243 251 253 265 264 263 268 281 106 357 339 335 326 314 316 313 312 305 321 333 341 10 104 114 117 116 126 136 126 99 93 90 79 72 69 64 56 47 38 33 28
247 253 250 253 255 258 267 270 261 267 226 283 311 327 326 313 319 316 311 305 299 312 4 316 341 87 112 118 128 125 116 113 107 100 92 85 82 73 58 48 39 32 26 20
251 253 260 259 260 261 264 271 265 261 245 275 307 320 318 315 303 303 309 304 307 312 338 279 274 92 112 105 108 108 110 109 104 99 94 81 62 50 44 35 30 25 19 13